Pittsfield, MA

8:39 PM EST on November 22, 2019 (GMT -0500)
Pittsfield Municipal

Weather History for KPSF - July, 2019

Change the Weather History Date:

Tuesday, July 16, 2019

  Actual Average Record
Temperature  
Mean Temperature 71 °F 68 °F  
Max Temperature 88 °F 79 °F 92 °F (1927)
Min Temperature 53 °F 56 °F 40 °F (1966)
Degree Days  
Heating Degree Days 0 1  
Month to date heating degree days 0 16  
Since 1 June heating degree days 67 117  
Since 1 July heating degree days 0 16  
Cooling Degree Days 6 3  
Month to date cooling degree days 102 56  
Year to date cooling degree days 159 125  
Since 1 June cooling degree days 153 112  
Growing Degree Days 20 (Base 50)    
Moisture  
Dew Point 58 °F    
Average Humidity 68    
Maximum Humidity 93    
Minimum Humidity 42    
Precipitation  
Precipitation 0.00 in 0.13 in 1.57 in (1958)
Month to date precipitation 0.35 1.96  
Year to date precipitation 22.94 23.40  
Sea Level Pressure  
Sea Level Pressure 30.00 in    
Wind  
Wind Speed 5 mph (SW)    
Max Wind Speed 13 mph    
Max Gust Speed 17 mph    
Visibility 8 miles    
Events Fog    
T = Trace of Precipitation, MM = Missing Value Source: NWS Daily Summary

Daily Weather History Graph

Daily Weather History Graph

Search for Another Location

Airport or City:

Astronomy

Jul. 16, 2019 Rise Set
Actual Time 5:30 AM EDT 8:27 PM EDT
Civil Twilight 4:56 AM EDT 9:01 PM EDT
Nautical Twilight 4:13 AM EDT 9:43 PM EDT
Astronomical Twilight 3:23 AM EDT 10:33 PM EDT
Moon 8:32 PM EDT (7/16) 5:05 AM EDT (7/16)
Length of Visible Light 16h 04m
Length of Day
14h 57m
Full, 100% of the Moon is Illuminated
Jul 16
Full
Jul 16
Full
Jul 24
Last Quarter
Jul 31
New
Aug 7
First Quarter

Hourly Weather History & Observations

Time (EDT) Temp. Heat Index Dew Point Humidity Pressure Visibility Wind Dir Wind Speed Gust Speed Precip Events Conditions
12:54 AM 59.0 °F - 55.9 °F 90% 30.02 in 10.0 mi NNE 3.5 mph - N/A   Clear
1:54 AM 59.0 °F - 55.0 °F 87% 30.02 in 10.0 mi Calm Calm - N/A   Clear
2:54 AM 57.9 °F - 55.0 °F 90% 30.01 in 10.0 mi Calm Calm - N/A   Clear
3:54 AM 55.9 °F - 54.0 °F 93% 30.01 in 8.0 mi Calm Calm - N/A   Clear
4:54 AM 55.9 °F - 53.1 °F 90% 30.01 in 10.0 mi Calm Calm - N/A   Clear
5:29 AM 55.9 °F - 53.1 °F 90% 30.09 in 1.2 mi Calm Calm - N/A   Partly Cloudy
5:32 AM 54.0 °F - 53.1 °F 97% 30.09 in 0.2 mi Calm Calm - N/A Fog Fog
5:54 AM 55.0 °F - 53.1 °F 93% 30.04 in 0.2 mi Calm Calm - N/A Fog Fog
5:57 AM 55.0 °F - 53.1 °F 93% 30.10 in 1.5 mi Calm Calm - N/A   Overcast
6:05 AM 54.0 °F - 52.0 °F 93% 30.10 in 0.2 mi Calm Calm - N/A Fog Fog
6:17 AM 55.0 °F - 53.1 °F 93% 30.10 in 1.5 mi Calm Calm - N/A   Mostly Cloudy
6:19 AM 55.0 °F - 53.1 °F 93% 30.10 in 4.0 mi Calm Calm - N/A   Mostly Cloudy
6:29 AM 55.9 °F - 54.0 °F 93% 30.10 in 6.0 mi Calm Calm - N/A   Scattered Clouds
6:54 AM 57.9 °F - 55.9 °F 93% 30.04 in 7.0 mi Calm Calm - N/A   Clear
7:54 AM 63.0 °F - 57.0 °F 81% 30.04 in 10.0 mi Calm Calm - N/A   Clear
8:54 AM 68.0 °F - 59.0 °F 73% 30.04 in 10.0 mi Calm Calm - N/A   Clear
9:54 AM 75.0 °F - 62.1 °F 64% 30.01 in 10.0 mi ESE 4.6 mph - N/A   Clear
10:54 AM 79.0 °F - 59.0 °F 50% 30.01 in 10.0 mi Variable 6.9 mph - N/A   Clear
11:54 AM 79.0 °F - 59.0 °F 50% 29.99 in 10.0 mi SSW 11.5 mph - N/A   Clear
12:54 PM 82.0 °F 82.0 °F 57.9 °F 44% 29.99 in 10.0 mi SW 9.2 mph - N/A   Clear
1:54 PM 84.9 °F 84.4 °F 59.0 °F 41% 29.97 in 10.0 mi Variable 4.6 mph 17.3 mph N/A   Partly Cloudy
2:54 PM 86.0 °F 85.7 °F 60.1 °F 41% 29.95 in 10.0 mi WSW 6.9 mph - N/A   Partly Cloudy
3:54 PM 87.1 °F 87.5 °F 62.1 °F 43% 29.95 in 10.0 mi WSW 6.9 mph - N/A   Partly Cloudy
4:54 PM 87.1 °F 87.8 °F 63.0 °F 44% 29.93 in 10.0 mi SW 9.2 mph - N/A   Clear
5:54 PM 87.1 °F 88.3 °F 64.0 °F 46% 29.92 in 10.0 mi WSW 9.2 mph - N/A   Clear
6:54 PM 84.9 °F 87.1 °F 66.0 °F 53% 29.91 in 10.0 mi SSW 5.8 mph - N/A   Clear
7:54 PM 81.0 °F 82.7 °F 64.9 °F 58% 29.92 in 10.0 mi SSW 5.8 mph - N/A   Partly Cloudy
8:54 PM 80.1 °F 81.9 °F 64.9 °F 60% 29.92 in 10.0 mi Variable 6.9 mph - N/A   Scattered Clouds
9:54 PM 79.0 °F - 66.0 °F 64% 29.93 in 10.0 mi SW 8.1 mph - N/A   Clear
10:54 PM 78.1 °F - 66.0 °F 66% 29.90 in 10.0 mi SSW 6.9 mph - N/A   Clear
11:54 PM 77.0 °F - 66.9 °F 71% 29.90 in 10.0 mi WSW 8.1 mph - N/A   Clear